[[{"header":{"parameterUnit":"m.s-1","parameterCategory":1,"la1":30.2991,"la2":30.254,"lo1":-89.0895,"lo2":-89.0444,"dy":0.0017,"dx":0.0017,"nx":28,"ny":28,"refTime":"2025-12-22T03:00:00:Z","depth":0,"parameterNumber":2,"parameterNumberName":"U-component_of_WINDS"},"data":[0,0,0,0,0,0,0,0,0,0,0,0,0,0,0,0,0,0,0,0,0,0,0,0,0,0,0,0,0,0,0,0,0,0,0,0,0,0,0,0,0,0,0,0,0,0,0,0,0,0,0,0,0,0,0,0,0,0,-2.5218,-2.5219,0,-2.5243,-2.5243,-2.5244,-2.5199,-2.5198,-2.5196,-2.5195,-2.522,-2.5222,-2.5225,0,0,0,0,0,0,0,0,0,0,0,0,0,-2.5133,-2.5135,-2.5218,-2.5219,-2.5219,-2.5243,-2.5244,-2.5244,-2.5199,-2.5198,-2.5196,-2.5194,-2.522,-2.5222,-2.5225,0,0,0,0,0,0,0,0,0,0,0,0,0,-2.5165,-2.5136,-2.5218,-2.52,-2.5198,-2.5243,-2.5244,-2.5244,-2.52,-2.5198,-2.5195,-2.5193,-2.5219,-2.5222,-2.5225,-2.5289,0,0,-2.5235,-2.5236,0,0,0,0,0,0,0,0,-2.5164,-2.5169,-2.5202,-2.5201,-2.52,-2.5216,-2.5223,-2.5259,-2.52,-2.5199,-2.5195,-2.5192,-2.5221,-2.5224,-2.5233,-2.529,-2.5291,-2.5235,-2.5237,-2.5238,-2.5239,0,0,0,0,0,0,0,-2.5161,-2.5167,-2.5228,-2.5203,-2.5201,-2.519,-2.5193,-2.523,-2.5222,-2.5199,-2.5196,-2.52,-2.522,-2.523,-2.5233,-2.5292,-2.5235,-2.5238,-2.5239,-2.5241,-2.5404,-2.5406,0,0,0,0,0,0,-2.5161,-2.5166,-2.5227,-2.5229,-2.5176,-2.5194,-2.5196,-2.5213,-2.5222,-2.5221,-2.5201,-2.5197,-2.5226,-2.523,-2.5234,-2.531,-2.5238,-2.5241,-2.5243,-2.5401,-2.5404,-2.5407,0,0,0,0,0,0,-2.516,-2.5167,-2.5226,-2.5196,-2.5203,-2.5198,-2.5217,-2.5215,-2.5225,-2.5223,-2.5222,-2.5214,-2.5224,-2.523,-2.5276,-2.531,-2.5242,-2.5245,-2.5399,-2.5402,-2.5406,-2.5462,0,0,0,0,0,0,-2.5157,-2.5167,-2.5191,-2.5197,-2.5205,-2.5267,-2.5219,-2.5217,-2.5231,-2.5225,-2.5234,-2.5234,-2.5223,-2.5272,-2.5279,-2.5313,-2.5248,-2.5395,-2.54,-2.5405,-2.5457,-2.5467,-2.5476,0,0,0,0,0,-2.5155,-2.5206,-2.5192,-2.52,-2.5235,-2.5269,-2.5274,-2.526,-2.5233,-2.5258,-2.5257,-2.5233,-2.5306,-2.5277,-2.5285,-2.532,-2.5393,-2.5399,-2.5404,-2.5453,-2.5465,-2.5476,0,0,0,0,0,0,-2.5203,-2.5206,-2.5191,-2.5246,-2.5258,-2.5262,-2.5292,-2.5274,-2.5294,-2.5288,-2.5271,-2.5273,-2.5323,-2.5327,-2.5294,-2.5383,-2.5345,-2.5352,-2.5379,-2.5391,-2.54,-2.5398,-2.525,0,0,0,0,0,-2.522,-2.5248,-2.5249,-2.5297,-2.5304,-2.5297,-2.5312,-2.5301,-2.5312,-2.5317,-2.532,-2.5332,-2.5357,-2.5374,-2.5398,-2.5458,-2.5459,-2.5487,-2.5496,-2.5504,-2.551,-2.5543,-2.5555,-2.5425,-2.5425,-2.5425,0,0,-2.5255,-2.526,-2.5279,-2.5307,-2.5315,-2.5344,-2.5302,-2.5334,-2.5356,-2.5322,-2.5366,-2.5369,-2.5381,-2.5435,-2.5459,-2.5439,-2.5546,-2.5511,-2.5517,-2.5519,-2.5549,-2.5562,-2.5573,-2.5429,-2.5428,-2.5428,0,0,-2.5334,-2.5341,-2.5382,-2.5391,-2.5404,-2.5399,-2.541,-2.5417,-2.5417,-2.5461,-2.5436,-2.5463,-2.5507,-2.5517,-2.5528,-2.5614,-2.5593,-2.5622,-2.567,-2.5702,-2.5712,-2.5721,-2.5752,-2.5763,-2.5628,-2.5628,-2.5629,0,-2.5376,-2.5419,-2.5405,-2.544,-2.5453,-2.5425,-2.5466,-2.5476,-2.5496,-2.5506,-2.5484,-2.554,-2.5546,-2.5602,-2.5623,-2.5633,-2.5644,-2.562,-2.5712,-2.5721,-2.5729,-2.5758,-2.5769,-2.5632,-2.5631,-2.5631,-2.5631,0,-2.547,-2.5501,-2.5533,-2.5553,-2.557,-2.5608,-2.56,-2.562,-2.5608,-2.5606,-2.5651,-2.5659,-2.5683,-2.5696,-2.5684,-2.5751,-2.5738,-2.5715,-2.5675,-2.5745,-2.5772,-2.5782,-2.5637,-2.5635,-2.5634,-2.5634,0,0,-2.5578,-2.5592,-2.5604,-2.5613,-2.5626,-2.5649,-2.5687,-2.5711,-2.5728,-2.5744,-2.5775,-2.5814,-2.5792,-2.5805,-2.5795,-2.5823,-2.589,-2.5796,-2.5796,-2.5813,-2.5964,-2.5981,-2.5994,-2.5878,-2.588,-2.5881,-2.5963,0,-2.5657,-2.5721,-2.571,-2.5772,-2.5801,-2.5775,-2.5808,-2.582,-2.582,-2.5844,-2.5844,-2.5872,-2.5841,-2.5849,-2.5876,-2.5877,-2.592,-2.5871,-2.5906,-2.5907,-2.5902,-2.6008,-2.6025,-2.6102,-2.5973,-2.5975,-2.5976,0,-2.5756,-2.5775,-2.5841,-2.585,-2.5862,-2.5891,-2.5913,-2.5937,-2.5951,-2.5949,-2.5964,-2.5949,-2.5987,-2.5948,-2.6001,-2.5967,-2.5981,-2.5984,-2.5987,-2.5989,-2.5945,-2.6012,-2.6126,-2.6137,-2.5993,-2.5991,-2.599,0,-2.5828,-2.5871,-2.5915,-2.5924,-2.5937,-2.5958,-2.5964,-2.5976,-2.5991,-2.6011,-2.6021,-2.6045,-2.6058,-2.6077,-2.6069,-2.6042,-2.6123,-2.6084,-2.6123,-2.6123,-2.614,-2.6138,-2.6257,-2.6151,-2.6151,-2.615,-2.615,0,-2.5915,-2.5956,-2.5948,-2.5975,-2.602,-2.6008,-2.6054,-2.6057,-2.6068,-2.6096,-2.6075,-2.6102,-2.6091,-2.6117,-2.6111,-2.6156,-2.6162,-2.6161,-2.6159,-2.6162,-2.6162,-2.617,-2.6165,-2.6153,-2.6153,-2.6152,-2.6152,0,-2.6002,-2.5998,-2.6045,-2.6054,-2.6057,-2.609,-2.6098,-2.6124,-2.6123,-2.6158,-2.6166,-2.6165,-2.6195,-2.6189,-2.6222,-2.6218,-2.6274,-2.6266,-2.6269,-2.6267,-2.6305,-2.6302,-2.6432,-2.6449,-2.6333,-2.6334,-2.6335,0,-2.6058,-2.6089,-2.6101,-2.6119,-2.6127,-2.6155,-2.6171,-2.6161,-2.6179,-2.6198,-2.6222,-2.625,-2.6272,-2.6321,-2.6323,-2.6349,-2.634,-2.6385,-2.6344,-2.6347,-2.634,-2.6338,-2.6341,-2.6392,-2.6393,-2.6395,-2.6395,0,-2.6157,-2.6154,-2.6178,-2.6202,-2.6222,-2.6241,-2.6257,-2.6273,-2.6264,-2.6286,-2.6316,-2.6333,-2.6368,-2.6396,-2.642,-2.6427,-2.641,-2.6409,-2.6419,-2.6422,-2.6422,-2.6422,-2.629,-2.6405,-2.6404,-2.6403,-2.6403,-2.6403,-2.623,-2.6256,-2.6269,-2.6297,-2.6309,-2.6325,-2.635,-2.6353,-2.6378,-2.6405,-2.6398,-2.6433,-2.6447,-2.6478,-2.6488,-2.6515,-2.6499,-2.6514,-2.6517,-2.6521,-2.6525,-2.6419,-2.652,-2.6519,-2.6519,-2.6519,-2.6519,0,-2.6327,-2.6335,-2.6361,-2.6385,-2.6407,-2.639,-2.6408,-2.6428,-2.6459,-2.6473,-2.6496,-2.6531,-2.6559,-2.6564,-2.6591,-2.6612,-2.6605,-2.662,-2.6617,-2.6619,-2.6538,-2.6527,-2.6625,-2.6625,-2.6625,-2.6625,-2.6625,-2.6625,-2.638,-2.6424,-2.6423,-2.6473,-2.6481,-2.6515,-2.6526,-2.6542,-2.6553,-2.6594,-2.6617,-2.6621,-2.6632,-2.666,-2.6685,-2.6686,-2.6696,-2.6713,-2.6711,-2.6635,-2.6625,-2.6615,-2.6603,-2.6716,-2.6716,-2.679,-2.679,-2.6791]},{"header":{"parameterUnit":"m.s-1","parameterCategory":1,"la1":30.2991,"la2":30.254,"lo1":-89.0895,"lo2":-89.0444,"dy":0.0017,"dx":0.0017,"nx":28,"ny":28,"refTime":"2025-12-22T03:00:00:Z","depth":0,"parameterNumber":3,"parameterNumberName":"V-component_of_WINDS"},"data":[0,0,0,0,0,0,0,0,0,0,0,0,0,0,0,0,0,0,0,0,0,0,0,0,0,0,0,0,0,0,0,0,0,0,0,0,0,0,0,0,0,0,0,0,0,0,0,0,0,0,0,0,0,0,0,0,0,0,0.0372,0.0373,0,0.0454,0.0455,0.0456,0.056,0.0562,0.0564,0.0565,0.0647,0.0647,0.0648,0,0,0,0,0,0,0,0,0,0,0,0,0,0.0305,0.0306,0.0372,0.0373,0.0374,0.0454,0.0455,0.0456,0.056,0.0562,0.0564,0.0566,0.0647,0.0647,0.0648,0,0,0,0,0,0,0,0,0,0,0,0,0,0.0355,0.0306,0.0372,0.0436,0.0442,0.0454,0.0455,0.0456,0.056,0.0562,0.0565,0.0567,0.0646,0.0647,0.0648,0.0603,0,0,0.0651,0.0651,0,0,0,0,0,0,0,0,0.0352,0.0357,0.0425,0.0431,0.0439,0.05,0.0461,0.0505,0.0559,0.0515,0.0565,0.0568,0.0596,0.0601,0.0611,0.0607,0.061,0.0651,0.0651,0.0652,0.0652,0,0,0,0,0,0,0,0.0349,0.0355,0.0405,0.0426,0.0434,0.046,0.047,0.047,0.054,0.0519,0.0527,0.0535,0.06,0.0609,0.0613,0.0611,0.0651,0.0652,0.0652,0.0653,0.0575,0.0573,0,0,0,0,0,0,0.0336,0.0351,0.0402,0.0407,0.0401,0.0459,0.047,0.0477,0.054,0.0552,0.0533,0.054,0.0607,0.0612,0.0616,0.0569,0.0652,0.0653,0.0653,0.0578,0.0575,0.0572,0,0,0,0,0,0,0.0334,0.0339,0.0399,0.0381,0.0391,0.0458,0.0465,0.0478,0.0488,0.0551,0.0564,0.053,0.0609,0.0615,0.0606,0.0573,0.0653,0.0654,0.0581,0.0577,0.0573,0.0471,0,0,0,0,0,0,0.0332,0.0338,0.0322,0.038,0.0391,0.0387,0.0463,0.0478,0.0489,0.0499,0.0552,0.0563,0.0611,0.0604,0.0607,0.0575,0.0655,0.0584,0.0579,0.0575,0.0478,0.0464,0.0453,0,0,0,0,0,0.0329,0.0289,0.032,0.0326,0.0372,0.0385,0.0391,0.0448,0.0486,0.047,0.0511,0.0561,0.0576,0.0602,0.0606,0.0575,0.0587,0.0581,0.0575,0.0484,0.0467,0.0453,0,0,0,0,0,0,0.0224,0.0298,0.0333,0.0311,0.0341,0.0402,0.0384,0.0429,0.0448,0.0456,0.0526,0.0537,0.0519,0.0546,0.0574,0.0535,0.0589,0.0583,0.0518,0.0503,0.049,0.0484,0.0655,0,0,0,0,0,0.0198,0.0203,0.0267,0.0241,0.0254,0.0316,0.0324,0.0365,0.0399,0.0412,0.0452,0.0482,0.0494,0.0499,0.0514,0.0482,0.0496,0.0463,0.045,0.0439,0.0434,0.0421,0.0407,0.0553,0.0553,0.0553,0,0,0.0145,0.0186,0.0184,0.0221,0.0249,0.0252,0.0326,0.0325,0.0328,0.0411,0.0406,0.0436,0.0474,0.0453,0.0447,0.0475,0.0397,0.0432,0.0423,0.0424,0.0413,0.0399,0.0387,0.0549,0.055,0.055,0,0,0.005,0.0081,0.0064,0.0091,0.0133,0.0174,0.017,0.0225,0.0248,0.0244,0.0307,0.031,0.0329,0.0354,0.0369,0.0284,0.0331,0.0286,0.0221,0.0207,0.0195,0.0185,0.0156,0.0144,0.0281,0.028,0.028,0,-0.0021,-0.0014,0.0049,0.0045,0.006,0.0136,0.0119,0.0142,0.0185,0.0193,0.0225,0.0251,0.0281,0.0269,0.0248,0.0257,0.0255,0.0281,0.0192,0.0183,0.0174,0.0147,0.0136,0.0275,0.0275,0.0276,0.0277,0,-0.0103,-0.0099,-0.0118,-0.0077,-0.0064,-0.0075,-0.0014,-0.0009,0.0031,0.0069,0.0064,0.0104,0.0128,0.0128,0.0167,0.0121,0.0137,0.0179,0.0235,0.0154,0.0129,0.0119,0.0267,0.0269,0.027,0.0272,0,0,-0.0262,-0.0185,-0.0193,-0.0172,-0.012,-0.0116,-0.0124,-0.0099,-0.0096,-0.0069,-0.0072,-0.0058,-0.0019,-0.0002,0.0041,0.0028,-0.004,0.0073,0.0075,0.0051,-0.0088,-0.012,-0.0133,-0.0009,-0.001,-0.0012,-0.0091,0,-0.0347,-0.0353,-0.0297,-0.0319,-0.0314,-0.0241,-0.0247,-0.0217,-0.0181,-0.0172,-0.0133,-0.0124,-0.0072,-0.0062,-0.0071,-0.003,-0.0067,-0.0023,-0.0012,-0.0012,-0.0023,-0.0146,-0.0179,-0.0256,-0.01,-0.0102,-0.0103,0,-0.0446,-0.0423,-0.0445,-0.0391,-0.0386,-0.0393,-0.0365,-0.0358,-0.0321,-0.0294,-0.0275,-0.0226,-0.0229,-0.0176,-0.0179,-0.0151,-0.0143,-0.0122,-0.0124,-0.012,-0.0062,-0.0145,-0.0279,-0.029,-0.0118,-0.0116,-0.0115,0,-0.0559,-0.0533,-0.0542,-0.0528,-0.0465,-0.0471,-0.0445,-0.0406,-0.0395,-0.0371,-0.0363,-0.034,-0.0328,-0.0312,-0.0258,-0.0224,-0.0267,-0.021,-0.0245,-0.0246,-0.0257,-0.0257,-0.0391,-0.0253,-0.0253,-0.0253,-0.0253,0,-0.0659,-0.0675,-0.0592,-0.0598,-0.0613,-0.0548,-0.0566,-0.0533,-0.0498,-0.0496,-0.0433,-0.0432,-0.0361,-0.0353,-0.0311,-0.0319,-0.0315,-0.0293,-0.0281,-0.0298,-0.0301,-0.0292,-0.0285,-0.0256,-0.0255,-0.0254,-0.0254,0,-0.0788,-0.0733,-0.0738,-0.0678,-0.0663,-0.0677,-0.0626,-0.0629,-0.0589,-0.0587,-0.0583,-0.0521,-0.0508,-0.0452,-0.0427,-0.0398,-0.0421,-0.0399,-0.0433,-0.0425,-0.0463,-0.046,-0.0596,-0.061,-0.0464,-0.0465,-0.0467,0,-0.0855,-0.0865,-0.0806,-0.08,-0.0776,-0.0767,-0.0755,-0.0691,-0.0681,-0.064,-0.0648,-0.0629,-0.0611,-0.0594,-0.0547,-0.0526,-0.0503,-0.0552,-0.0499,-0.0516,-0.0503,-0.0502,-0.0503,-0.0563,-0.0565,-0.0566,-0.0568,0,-0.098,-0.0952,-0.0936,-0.0911,-0.0898,-0.0875,-0.0849,-0.0848,-0.0777,-0.0769,-0.0754,-0.074,-0.0713,-0.0695,-0.0667,-0.064,-0.0593,-0.0584,-0.0591,-0.0608,-0.0628,-0.0617,-0.0463,-0.0581,-0.058,-0.0579,-0.0578,-0.0578,-0.1079,-0.1084,-0.1043,-0.1027,-0.1001,-0.0977,-0.0977,-0.0936,-0.0923,-0.0895,-0.0859,-0.0849,-0.0811,-0.0767,-0.0745,-0.0736,-0.0709,-0.072,-0.0722,-0.0725,-0.0734,-0.0629,-0.0731,-0.0731,-0.073,-0.073,-0.0729,0,-0.1199,-0.1169,-0.1156,-0.112,-0.1108,-0.1063,-0.1031,-0.1024,-0.1016,-0.0984,-0.0967,-0.0951,-0.0933,-0.0884,-0.0862,-0.0865,-0.0842,-0.0861,-0.086,-0.0854,-0.0759,-0.0755,-0.0879,-0.0879,-0.0879,-0.0879,-0.0879,-0.0879,-0.1261,-0.1267,-0.1234,-0.1227,-0.1196,-0.1185,-0.1171,-0.1149,-0.1123,-0.1107,-0.1092,-0.106,-0.1021,-0.0995,-0.0977,-0.0963,-0.0958,-0.0984,-0.0963,-0.0875,-0.0861,-0.0847,-0.0843,-0.0984,-0.0984,-0.1059,-0.1059,-0.106]}]]